Location: Saratoga Springs
(43.0831°N, 73.7850°W)
Time: 18:35:21
(UTC-04:00)

Vanguard 2 - Pass Details

Date: 18 April 2024
Orbit: 553 x 2914 km, 32.9° (Epoch: 19 May)

Event Time Altitude Azimuth Distance (km) Brightness Sun altitude
Rises 09:08:32 0° 278° (W) 6,703 11.8 31.8°
Reaches altitude 10° 09:14:03 10° 269° (W) 5,519 11.5 32.8°
Maximum altitude 09:26:28 29° 218° (SW) 3,491 10.9 35.0°
Drops below altitude 10° 09:35:37 10° 164° (SSE) 4,001 11.8 36.5°
Sets 09:38:54 0° 153° (SSE) 4,653 12.1 37.1°
